Vertical_Velocity
-4 -7 -19 8 2 -0 -4 -1 0 3 2 0 2 -2 -3 -5 -4 -4 -1 -0 1 -0 -1 -3 -2 -2 -4 -3 -3 1 1 3 -1 -1 -2 -5 -3 2 3 -4 8 3 2 5
18 0 -0 5 3 -3 1 1 1 2 1 1 1 -3 -4 -1 -1 -1 -3 0 -2 0 1 0 1 -1 -1 -0 -2 2 2 1 3 1 2 -6 -2 -1 3 4 -0 1 -5 -2
-6 -4 1 3 -1 -1 0 -0 -0 1 1 -0 -1 -8 -4 3 -1 -1 1 -0 -1 -2 -1 1 0 0 1 -1 -1 -2 2 -1 -2 1 3 1 3 -4 -5 -5 -2 1 6 2
12 2 7 8 6 2 -3 1 2 -0 -1 -3 -0 -7 5 1 1 1 1 1 1 0 0 0 1 -0 -1 0 -0 0 -1 1 2 -0 -1 4 6 4 5 3 7 -0 2 -3
-5 -6 2 6 0 4 0 -1 2 0 -2 -3 -2 -2 6 3 3 2 2 2 1 1 0 1 1 1 0 -1 -1 1 2 1 4 2 -0 -3 -4 2 3 1 2 1 4 3
-6 29 7 -4 -3 -2 -5 2 2 0 -2 -1 -0 1 5 3 3 2 2 2 1 1 1 0 0 1 0 1 -1 -1 -2 -2 -0 2 5 3 1 2 4 5 1 2 5 2
5 1 2 2 -5 -1 2 1 -0 -2 -1 -3 -0 1 2 2 3 2 3 3 0 -1 -1 1 1 -0 -1 -2 -2 -1 -1 -1 -2 -1 -1 0 1 -1 -2 -1 3 1 2 3
0 2 1 -0 5 -5 -0 -5 -2 -3 -1 -1 -0 -4 1 2 2 3 4 3 -0 -3 -2 -1 -1 -1 0 1 -0 1 1 -1 -2 -0 -1 0 1 0 1 2 -1 -1 -1 2
-5 1 1 2 4 2 -2 -1 1 -3 1 -1 -0 0 0 2 3 5 1 0 2 3 0 -1 -0 -2 -1 -1 -0 2 2 1 -1 -2 -0 1 0 -0 1 1 0 3 1 1
-1 -5 3 0 0 0 -1 1 -2 0 -3 -0 -2 -1 -0 2 1 2 1 -0 -1 -4 -2 -2 -3 -3 -2 -3 1 -3 -0 4 3 1 2 1 2 3 2 2 4 -0 -0 -1
-1 -1 2 3 -1 -2 -2 -3 0 -2 -1 -3 -1 -2 -0 1 2 0 0 2 -3 -1 -4 -3 -3 -2 -2 -3 -1 -1 0 0 -0 0 1 4 6 4 5 4 3 -1 -1 -2
0 -3 -1 -1 -2 -2 -3 -3 0 2 -1 0 -1 -2 1 1 0 -7 -6 -6 -4 -3 0 -0 -1 -1 -1 -0 -0 -2 -4 -4 -3 -3 -3 -1 -0 1 2 3 4 6 2 -1
-1 0 -2 2 1 -1 0 1 -1 0 -0 -3 -1 -1 -1 2 -4 -5 -4 -1 -2 -3 0 -1 -2 -0 0 0 1 1 1 -1 -5 -3 -3 -4 -5 -4 -1 -1 0 -1 3 3
-1 -2 -0 -6 -1 -0 -2 -1 0 3 -1 -1 -8 -0 2 9 2 2 1 1 -2 -5 -1 -2 -1 -2 -1 2 -0 -4 -5 -4 -3 -6 -6 -2 -3 -1 1 0 -4 2 2 2
-2 -2 -1 -0 -1 -1 -0 -0 -4 -4 -2 -6 -1 -5 5 -1 -2 -3 -3 -4 -5 -0 -2 0 -5 -1 -1 -2 -2 -2 -3 0 -1 -2 -4 -4 -4 -4 -4 -8 -0 2 -7 7
-2 -2 -1 -1 -1 -1 -5 -1 1 1 0 -6 0 -10 1 3 -1 -1 -2 -2 -2 1 -2 -1 -1 -0 0 0 -3 -2 -1 -4 -5 -1 -5 0 -2 -1 -1 -6 -2 -4 -5 7
-1 -1 -1 -0 1 -0 -4 -3 -2 0 -0 4 -3 4 0 -1 -1 1 1 1 -2 -3 -2 1 -3 -4 -1 -3 -4 -3 -3 -3 -2 -5 -3 -0 -4 1 -3 0 -1 -6 -3 1
-1 -3 -2 -1 0 -2 0 0 1 1 1 -2 -1 0 -1 -3 -0 0 -1 -3 -1 0 -1 -2 -4 -1 -2 -5 -4 0 -3 -3 -1 -1 1 -0 -3 2 -6 2 -0 2 5 -4
1 2 -1 -1 -2 -4 -1 0 0 2 -1 0 -1 -3 -1 -1 -3 -1 -1 1 -0 -3 -2 -3 -2 -1 -2 -4 1 -4 -2 -0 -1 -2 -2 -3 1 -1 -1 0 7 6 6 5
2 1 -0 0 -0 -2 0 1 1 -1 0 1 -2 1 -2 -2 3 1 -0 -1 -3 -1 -1 -2 -1 1 -3 -1 -1 -3 -2 -1 -1 -5 -2 -1 -1 1 -3 1 3 1 -2 1
0 1 -2 -1 -1 -6 2 1 -1 0 -2 0 -1 -2 -1 -1 2 -2 -4 -1 1 1 1 1 -2 0 -2 -2 -2 -2 -1 1 -1 -4 -1 -2 -3 -3 -2 -2 -1 0 2 1
-1 -2 -3 0 1 -7 2 5 -0 3 -1 -0 -1 -1 -2 1 1 -3 -4 -2 -0 0 -0 -1 -4 -0 -3 -3 -3 -1 1 0 -1 -2 -2 -1 -0 -0 -0 -1 -0 -1 -1 -1
-4 -2 -0 -3 -0 1 4 1 1 0 -2 0 0 0 1 1 0 -2 -2 -3 -1 -1 -0 -1 -3 -3 -0 -1 -1 -1 -0 -1 -2 -1 -1 -0 -1 -1 -2 -2 -2 -1 1 2
-3 0 -4 -0 0 -0 -2 4 3 -0 -0 1 -1 1 1 -3 -1 -4 3 -0 -3 -1 -1 -0 -1 -1 0 -1 -0 -1 1 -1 -1 -1 -1 -1 -1 -1 -0 1 2 3 2 1
-1 1 -2 -7 1 -2 -2 1 3 1 0 -1 -3 -1 -1 -1 1 -3 0 -1 -0 -0 -1 -0 0 0 0 -1 -1 -0 0 -0 -1 0 -1 -1 -1 -1 -1 -1 -1 -1 -1 -0
1 1 -2 -7 -2 3 2 5 3 -1 -1 0 -1 -1 0 1 1 1 -1 -1 1 -0 -2 -3 -0 -1 -1 -2 -2 0 -0 -0 -0 -1 -2 -2 -1 -1 -0 1 1 0 -1 0
Height
3046 3050 3047 3055 3061 3066 3072 3077 3080 3083 3084 3086 3087 3087 3090 3094 3095 3097 3100 3103 3105 3106 3107 3107 3108 3109 3109 3111 3113 3115 3117 3119 3121 3123 3125 3128 3131 3135 3136 3139 3141 3142 3144 3145
3043 3045 3052 3058 3063 3067 3072 3075 3078 3080 3081 3084 3084 3083 3087 3090 3090 3091 3091 3094 3096 3097 3099 3100 3100 3100 3101 3102 3104 3105 3108 3111 3112 3113 3116 3118 3122 3124 3127 3129 3132 3134 3136 3137
3035 3044 3051 3055 3061 3067 3071 3073 3075 3078 3079 3081 3080 3079 3083 3083 3082 3083 3086 3087 3089 3091 3093 3093 3093 3093 3094 3096 3097 3099 3100 3102 3104 3105 3107 3108 3111 3113 3116 3118 3122 3127 3129 3130
3038 3042 3049 3051 3058 3064 3069 3073 3074 3076 3078 3079 3079 3080 3079 3078 3078 3079 3081 3082 3083 3085 3086 3087 3087 3087 3087 3088 3090 3091 3092 3093 3095 3097 3097 3100 3101 3102 3106 3110 3114 3116 3117 3120
3038 3041 3045 3051 3056 3062 3067 3071 3072 3074 3076 3077 3077 3080 3075 3075 3076 3077 3078 3078 3079 3080 3081 3082 3083 3083 3083 3084 3084 3084 3084 3084 3086 3087 3088 3091 3092 3093 3095 3097 3101 3104 3106 3109
3041 3040 3046 3051 3056 3061 3065 3070 3072 3073 3075 3077 3074 3076 3072 3072 3073 3074 3076 3076 3076 3077 3078 3079 3080 3080 3080 3080 3080 3080 3080 3079 3079 3079 3080 3081 3083 3085 3085 3087 3088 3091 3094 3096
3042 3045 3049 3052 3056 3062 3066 3068 3070 3074 3075 3073 3072 3073 3069 3070 3071 3073 3074 3073 3073 3075 3076 3076 3076 3076 3076 3076 3076 3075 3075 3073 3073 3073 3072 3073 3073 3074 3074 3075 3077 3078 3081 3083
3043 3052 3053 3055 3058 3060 3064 3067 3067 3069 3071 3070 3070 3067 3066 3068 3070 3071 3071 3071 3072 3072 3071 3071 3071 3071 3071 3070 3069 3069 3068 3067 3067 3067 3066 3066 3066 3066 3066 3067 3067 3067 3069 3072
3044 3049 3052 3055 3057 3061 3062 3063 3066 3068 3070 3070 3065 3064 3064 3065 3067 3068 3068 3069 3069 3067 3066 3065 3064 3063 3062 3061 3061 3060 3059 3060 3059 3059 3059 3059 3059 3058 3058 3058 3057 3058 3058 3060
3044 3048 3052 3053 3056 3059 3060 3063 3066 3066 3071 3069 3062 3060 3061 3063 3065 3066 3066 3065 3064 3062 3060 3058 3056 3054 3053 3051 3050 3049 3048 3049 3049 3049 3049 3050 3050 3049 3049 3049 3049 3049 3050 3051
3045 3048 3054 3055 3056 3057 3060 3061 3063 3064 3065 3063 3063 3059 3059 3061 3062 3063 3062 3060 3057 3054 3053 3051 3048 3045 3043 3041 3040 3039 3038 3038 3038 3038 3039 3038 3038 3038 3038 3038 3039 3040 3041 3042
3045 3047 3051 3054 3054 3055 3057 3059 3062 3061 3062 3061 3063 3059 3058 3060 3060 3058 3057 3055 3052 3049 3047 3042 3039 3037 3035 3032 3031 3031 3031 3030 3030 3029 3028 3027 3027 3027 3027 3027 3028 3028 3029 3031
3045 3047 3049 3053 3056 3054 3054 3056 3057 3059 3058 3060 3061 3057 3056 3058 3057 3055 3052 3050 3046 3044 3040 3038 3034 3031 3029 3028 3027 3025 3025 3025 3025 3022 3019 3018 3018 3019 3019 3019 3019 3019 3019 3020
3044 3046 3047 3049 3049 3049 3050 3050 3053 3057 3057 3056 3054 3055 3056 3056 3053 3052 3049 3045 3041 3038 3034 3031 3028 3028 3027 3026 3025 3025 3023 3021 3019 3016 3012 3010 3010 3010 3010 3010 3011 3011 3011 3012
3044 3045 3046 3047 3047 3048 3048 3048 3050 3051 3052 3052 3051 3051 3052 3051 3048 3046 3044 3040 3037 3033 3030 3028 3027 3027 3025 3023 3021 3021 3018 3016 3013 3010 3007 3005 3004 3004 3004 3004 3003 3004 3005 3005
3042 3044 3044 3044 3044 3044 3044 3046 3047 3048 3048 3047 3049 3047 3048 3047 3045 3043 3040 3036 3032 3029 3027 3026 3025 3024 3020 3019 3019 3018 3014 3010 3008 3005 3003 3001 3000 3000 2999 2995 2995 2998 3000 3001
3041 3042 3044 3043 3043 3043 3042 3038 3039 3041 3042 3045 3044 3045 3044 3044 3042 3040 3036 3032 3029 3025 3023 3023 3022 3020 3018 3017 3014 3012 3011 3008 3005 3002 3000 2999 2997 2997 2997 2995 2996 2997 2998 2999
3039 3041 3042 3042 3042 3044 3037 3036 3037 3037 3039 3040 3041 3042 3041 3040 3039 3036 3033 3029 3025 3022 3020 3019 3018 3016 3015 3014 3011 3010 3009 3006 3003 3001 2999 2997 2996 2996 2996 2994 2995 2995 2996 2998
3038 3040 3041 3041 3040 3037 3035 3036 3037 3037 3039 3038 3039 3039 3039 3038 3036 3034 3030 3026 3024 3020 3017 3016 3014 3012 3012 3011 3010 3008 3006 3005 3003 3000 2998 2995 2995 2995 2996 2993 2993 2992 2994 2993
3036 3038 3040 3039 3039 3036 3034 3034 3035 3036 3038 3037 3037 3037 3037 3036 3034 3032 3028 3026 3023 3019 3016 3013 3012 3011 3010 3008 3007 3006 3005 3003 3002 3001 2999 2998 2997 2997 2997 2997 2995 2995 2997 2996
3034 3035 3036 3037 3036 3032 3032 3033 3034 3037 3041 3036 3036 3035 3035 3034 3033 3030 3027 3025 3022 3019 3015 3011 3009 3010 3009 3007 3006 3005 3004 3003 3002 3002 3001 3001 3000 3001 3001 3000 3000 3000 3000 3000
3030 3031 3031 3033 3035 3031 3029 3031 3033 3034 3033 3034 3034 3033 3033 3032 3032 3031 3028 3025 3022 3019 3016 3012 3009 3010 3009 3008 3007 3007 3006 3005 3005 3005 3005 3004 3004 3005 3005 3004 3004 3004 3003 3003
3029 3028 3028 3029 3027 3027 3027 3028 3030 3030 3031 3032 3032 3032 3031 3030 3030 3029 3027 3025 3022 3020 3017 3015 3012 3011 3010 3009 3010 3010 3010 3009 3008 3008 3008 3008 3008 3007 3007 3006 3006 3005 3005 3005
3024 3025 3025 3025 3025 3025 3026 3027 3027 3028 3029 3029 3029 3029 3028 3028 3027 3027 3025 3023 3022 3020 3018 3016 3015 3014 3013 3013 3012 3012 3012 3011 3010 3010 3010 3010 3009 3009 3008 3008 3007 3006 3006 3004
3021 3021 3021 3021 3022 3022 3023 3023 3024 3025 3026 3026 3026 3026 3025 3025 3024 3024 3023 3022 3020 3019 3018 3016 3015 3015 3015 3015 3014 3013 3013 3013 3012 3011 3011 3011 3011 3010 3009 3009 3008 3007 3006 3004
3016 3015 3015 3016 3017 3019 3020 3020 3019 3021 3022 3022 3022 3022 3022 3022 3021 3020 3020 3019 3019 3018 3016 3015 3015 3015 3015 3015 3014 3013 3013 3013 3013 3012 3012 3011 3011 3010 3010 3009 3007 3005 3003 3002